Погода в Терсколе

Россия / Кабардино-Балкарская Республика     43°15′21″N   42°30′46″E
темп.,
°C
ветер,
м/с
пор.,
м/с
влажн.,
%
обл.,
%
осадки,
мм/ч
давл.,
гПа
погр.,
м
20 мая, пт
пт2000:00−6ююз4499100 3.8 102091
03:00−7ююз449994 4.8 1021111
06:00−8юз4499100 0.4 1023151
09:00−5юз4489100 0.7 1019694
12:00−5юз449089 0.7 1021748
15:00−5юз4390100 1.4 1020693
18:00−5юз3397100 1.8 1020361
21:00−9з229995 2.7 102640
21 мая, сб
сб2100:00−11ссз339263 0.1 102814
03:00−12сз338028 0.2 102913
06:00−8ссз22605 0.0 102516
09:00−2зсз236618 0.0 1020307
12:00−1юз229578 0.0 1019407
15:000юз2298100 0.3 1020311
18:00−1юз229568 0.1 1019220
21:00−5з129419 0.1 102212
22 мая, вс
вс2200:00−5з127293 0.0 102012
03:00−5з12700 0.0 101813
06:00−3юз126578 0.0 101619
09:00+1ююз34740 0.0 1013202
12:00+3ююз44761 0.0 1012523
15:00+5ююз45683 0.0 1010947
18:00+3ююз45753 0.1 1009523
21:00−2ю33870 0.1 101027
23 мая, пн
пн2300:00−3ююз448111 0.0 100934
03:00−4ююз448714 0.0 100942
06:00−2ю338558 0.0 1008173
09:000ю438397 0.1 1006392
12:00+2ю447697 0.2 1004889
15:00+3юз228296 1.4 1001775
18:000юз3397100 2.2 1002317
21:00−1юз2298100 2.9 1004149
24 мая, вт
вт2400:00−2юз2399100 1.8 1004250
03:00−3юз3399100 3.9 1005221
06:00−5юз2297100 0.6 1008208
09:00−3ююз3395100 0.8 1008485
12:00−2ююз4497100 2.1 1008544
15:00−3юз439598 3.8 1011551
18:00−4юз3395100 0.9 1013344
21:00−5ююз229592 1.6 1016182